Flag for United Kingdom Weather past 2 weeks in Winchester, England, United Kingdom

Now
75 °F

Sunny.


Feels Like: 78 °F
Forecast: 60 / 75 °F
Wind: 12 mph from Northeast

Location: Middle Wallop

Current Time: Jul 26, 2014 at 10:19:52 AM

Latest Report: Jul 26, 2014 at 9:50 AM


Visibility: N/A

Pressure: 30.04 "Hg

Humidity: 41%

Dew point: 50 °F

Location of WinchesterLocation

Historic Weather in Winchester — Graph

°F

Winchester temperature yesterday

Maximum temperature yesterday: 81 °F (at 2:50 PM)
Minimum temperature yesterday: 61 °F (at 4:50 AM)
Average temperature yesterday: 70 °F

Past Weeks' High & Low Weather Summary

 TemperatureHumidityPressure
High84 °F (Jul 24, 4:50 PM)100% (Jul 12, 6:50 AM)30.21 "Hg (Jul 12, 6:50 AM)
Low50 °F (Jul 14, 3:50 AM)29% (Jul 24, 4:50 PM)29.71 "Hg (Jul 19, 5:50 PM)
Average68 °F68%30.00 "Hg
* Reported Jul 11 8:50 AM — Jul 26 8:50 AM, Winchester, Weather by CustomWeather, © 2014

Note: Actual official high and low records may vary slightly from our data, if they occured in-between our weather recording intervals... More about our weather records

Advertising

Winchester weather history for previous 24 hours

 ConditionsComfort  
Time TempWeatherWind HumidityBarometerVisibility
8:50 AM
Jul 26
72 °FSunny.10 mph50%30.04 "HgN/A
7:50 AM66 °FSunny.7 mph68%30.04 "HgN/A
6:50 AM61 °FSunny.5 mph83%30.04 "HgN/A
5:50 AM57 °FClear.5 mph94%30.04 "Hg6 mi
4:50 AM57 °FPassing clouds.5 mph94%30.04 "HgN/A
3:50 AM61 °FClear.7 mph83%30.04 "HgN/A
2:50 AM59 °FClear.2 mph82%30.04 "HgN/A
1:50 AM64 °FClear.9 mph73%30.04 "HgN/A
12:50 AM64 °FClear.9 mph73%30.04 "HgN/A
11:50 PM
Jul 25
66 °FClear.8 mph68%30.04 "HgN/A
10:50 PM64 °FClear.3 mph78%30.04 "HgN/A
9:50 PM70 °FSunny.2 mph64%30.04 "HgN/A
8:50 PM72 °FSunny.5 mph61%30.01 "HgN/A
7:50 PM77 °FSunny.5 mph44%30.01 "HgN/A
6:50 PM77 °FSunny.7 mph42%30.01 "HgN/A
5:50 PM73 °FPartly sunny.5 mph53%30.01 "HgN/A
4:50 PM73 °FPartly sunny.22 mph50%30.01 "HgN/A
3:50 PM81 °FPartly sunny.9 mph37%30.01 "HgN/A
2:50 PM81 °FSunny.6 mph39%30.01 "Hg10 mi
1:50 PM79 °FPassing clouds.10 mph45%30.01 "HgN/A
12:50 PM77 °FPassing clouds.10 mph54%30.04 "HgN/A
11:50 AM75 °FPassing clouds.12 mph57%30.04 "HgN/A
10:50 AM73 °FScattered clouds.13 mph61%30.04 "HgN/A
Weather by CustomWeather, © 2014

See weather overviewHow to use our weather pages